Time,TemperatureF,DewpointF,PressureIn,WindDirection,WindDirectionDegrees,WindSpeedMPH,WindSpeedGustMPH,Humidity,HourlyPrecipIn,Conditions,Clouds,dailyrainin,SoftwareType,DateUTC
2013-04-03 00:14:00,66.2,62.8,30.10,SW,225,0.0,0.7,89,0.00,,,0.00,meteobridge,2013-04-03 04:14:00,
2013-04-03 00:29:00,65.8,62.4,30.09,SW,225,0.0,0.0,89,0.00,,,0.00,meteobridge,2013-04-03 04:29:00,
2013-04-03 00:44:00,65.5,62.4,30.09,SW,225,0.0,0.0,90,0.00,,,0.00,meteobridge,2013-04-03 04:44:00,
2013-04-03 00:59:00,65.5,62.4,30.09,SE,135,0.0,0.0,90,0.00,,,0.00,meteobridge,2013-04-03 04:59:00,
2013-04-03 01:14:00,65.3,62.2,30.09,SE,135,0.0,0.0,90,0.00,,,0.00,meteobridge,2013-04-03 05:14:00,
2013-04-03 01:29:00,65.3,62.2,30.09,SW,225,0.7,0.7,90,0.00,,,0.00,meteobridge,2013-04-03 05:29:00,
2013-04-03 01:44:00,64.9,61.9,30.08,SW,225,0.0,0.0,90,0.00,,,0.00,meteobridge,2013-04-03 05:44:00,
2013-04-03 01:59:00,64.9,62.2,30.07,NE,45,0.7,0.7,91,0.00,,,0.00,meteobridge,2013-04-03 05:59:00,
2013-04-03 02:14:00,65.1,62.4,30.06,SE,135,0.7,0.7,91,0.00,,,0.00,meteobridge,2013-04-03 06:14:00,
2013-04-03 02:30:00,65.3,62.6,30.05,NE,45,0.7,0.7,91,0.00,,,0.00,meteobridge,2013-04-03 06:30:00,
2013-04-03 02:45:00,65.5,62.8,30.05,East,90,0.0,0.7,91,0.00,,,0.00,meteobridge,2013-04-03 06:45:00,
2013-04-03 03:00:00,65.5,62.8,30.05,East,90,0.7,0.7,91,0.00,,,0.00,meteobridge,2013-04-03 07:00:00,
2013-04-03 03:15:00,65.7,63.3,30.04,East,90,1.6,1.6,92,0.00,,,0.00,meteobridge,2013-04-03 07:15:00,
2013-04-03 03:30:00,65.5,63.1,30.03,SE,135,1.6,1.6,92,0.00,,,0.00,meteobridge,2013-04-03 07:30:00,
2013-04-03 03:45:00,65.1,63.0,30.02,East,90,1.6,1.6,93,0.00,,,0.00,meteobridge,2013-04-03 07:45:00,
2013-04-03 04:00:00,65.1,62.4,30.01,SE,135,1.6,1.6,91,0.00,,,0.00,meteobridge,2013-04-03 08:00:00,
2013-04-03 04:15:00,65.3,62.2,30.01,SSE,158,1.6,1.6,90,0.00,,,0.00,meteobridge,2013-04-03 08:15:00,
2013-04-03 04:30:00,65.1,62.1,30.01,South,180,1.6,1.6,90,0.00,,,0.00,meteobridge,2013-04-03 08:30:00,
2013-04-03 04:45:00,64.9,61.9,30.02,SE,135,1.6,1.6,90,0.00,,,0.00,meteobridge,2013-04-03 08:45:00,
2013-04-03 05:00:00,64.9,61.9,30.02,SE,135,3.1,3.1,90,0.00,,,0.00,meteobridge,2013-04-03 09:00:00,
2013-04-03 05:15:00,64.8,62.1,30.02,SE,135,1.6,1.6,91,0.00,,,0.00,meteobridge,2013-04-03 09:15:00,
2013-04-03 05:30:00,64.6,62.2,30.02,SE,135,1.6,2.2,92,0.00,,,0.00,meteobridge,2013-04-03 09:30:00,
2013-04-03 05:45:00,64.4,62.1,30.02,SE,135,0.7,1.6,92,0.00,,,0.00,meteobridge,2013-04-03 09:45:00,
2013-04-03 06:00:00,64.4,62.4,30.03,East,90,2.2,3.1,93,0.00,,,0.00,meteobridge,2013-04-03 10:00:00,
2013-04-03 06:15:00,64.4,62.4,30.02,SE,135,1.6,1.6,93,0.00,,,0.00,meteobridge,2013-04-03 10:15:00,
2013-04-03 06:30:00,64.2,62.4,30.02,SE,135,3.1,3.1,94,0.00,,,0.00,meteobridge,2013-04-03 10:30:00,
2013-04-03 06:45:00,64.2,62.4,30.02,South,180,2.2,2.2,94,0.00,,,0.00,meteobridge,2013-04-03 10:45:00,
2013-04-03 07:00:00,64.4,63.0,30.03,South,180,1.6,1.6,95,0.00,,,0.00,meteobridge,2013-04-03 11:00:00,
2013-04-03 07:15:00,64.6,63.1,30.02,SE,135,1.6,1.6,95,0.00,,,0.00,meteobridge,2013-04-03 11:15:00,
2013-04-03 07:30:00,64.9,63.5,30.02,South,180,1.6,1.6,95,0.00,,,0.00,meteobridge,2013-04-03 11:30:00,
2013-04-03 07:45:00,65.5,64.2,30.02,SE,135,1.6,2.2,96,0.00,,,0.00,meteobridge,2013-04-03 11:45:00,
2013-04-03 08:00:00,66.6,65.1,30.02,South,180,2.2,2.2,95,0.00,,,0.00,meteobridge,2013-04-03 12:00:00,
2013-04-03 08:15:00,68.4,66.2,30.02,SSE,158,1.6,3.1,93,0.00,,,0.00,meteobridge,2013-04-03 12:15:00,
2013-04-03 08:30:00,69.8,66.4,30.03,West,270,2.2,3.1,89,0.00,,,0.00,meteobridge,2013-04-03 12:30:00,
2013-04-03 08:45:00,73.0,67.6,30.04,South,180,3.1,3.1,83,0.00,,,0.00,meteobridge,2013-04-03 12:45:00,
2013-04-03 09:00:00,73.9,67.8,30.04,SE,135,2.2,4.5,81,0.00,,,0.00,meteobridge,2013-04-03 13:00:00,
2013-04-03 09:15:00,75.2,67.8,30.04,ESE,113,5.4,5.4,78,0.00,,,0.00,meteobridge,2013-04-03 13:15:00,
2013-04-03 09:30:00,75.2,67.8,30.04,South,180,3.8,5.4,78,0.00,,,0.00,meteobridge,2013-04-03 13:30:00,
2013-04-03 09:45:00,75.9,68.2,30.05,SE,135,3.1,4.5,77,0.00,,,0.00,meteobridge,2013-04-03 13:45:00,
2013-04-03 10:00:00,77.2,69.1,30.04,SW,225,3.1,3.1,76,0.00,,,0.00,meteobridge,2013-04-03 14:00:00,
2013-04-03 10:15:00,77.2,68.7,30.04,East,90,3.8,5.4,75,0.00,,,0.00,meteobridge,2013-04-03 14:15:00,
2013-04-03 10:30:00,78.3,68.5,30.04,South,180,5.4,5.4,72,0.00,,,0.00,meteobridge,2013-04-03 14:30:00,
2013-04-03 10:45:00,79.2,68.2,30.05,East,90,4.5,4.5,69,0.00,,,0.00,meteobridge,2013-04-03 14:45:00,
2013-04-03 11:00:00,80.2,68.4,30.04,SW,225,4.5,4.5,67,0.00,,,0.00,meteobridge,2013-04-03 15:00:00,
2013-04-03 11:15:00,80.4,68.0,30.03,South,180,3.8,5.4,66,0.00,,,0.00,meteobridge,2013-04-03 15:15:00,
2013-04-03 11:30:00,80.8,68.0,30.02,South,180,3.1,3.8,65,0.00,,,0.00,meteobridge,2013-04-03 15:30:00,
2013-04-03 11:45:00,81.3,68.0,30.01,SSE,158,2.2,3.8,64,0.00,,,0.00,meteobridge,2013-04-03 15:45:00,
2013-04-03 12:00:00,81.7,68.4,30.01,South,180,3.8,4.5,64,0.00,,,0.00,meteobridge,2013-04-03 16:00:00,
2013-04-03 12:15:00,82.2,68.4,30.02,SW,225,2.2,3.1,63,0.00,,,0.00,meteobridge,2013-04-03 16:15:00,
2013-04-03 12:30:00,83.1,67.3,30.02,South,180,3.8,5.4,59,0.00,,,0.00,meteobridge,2013-04-03 16:30:00,
2013-04-03 12:45:00,83.7,66.7,30.01,SW,225,3.8,4.5,57,0.00,,,0.00,meteobridge,2013-04-03 16:45:00,
2013-04-03 13:00:00,84.9,66.9,30.01,SSE,158,5.4,5.4,55,0.00,,,0.00,meteobridge,2013-04-03 17:00:00,
2013-04-03 13:15:00,84.9,66.9,30.00,South,180,4.5,4.5,55,0.00,,,0.00,meteobridge,2013-04-03 17:15:00,
2013-04-03 13:30:00,86.0,66.9,30.00,SE,135,3.1,5.4,53,0.00,,,0.00,meteobridge,2013-04-03 17:30:00,
2013-04-03 13:45:00,86.0,66.4,30.01,SSW,203,4.5,4.5,52,0.00,,,0.00,meteobridge,2013-04-03 17:45:00,
2013-04-03 14:00:00,86.2,64.8,30.00,SW,225,4.5,4.5,49,0.00,,,0.00,meteobridge,2013-04-03 18:00:00,
2013-04-03 14:15:00,85.5,64.8,30.01,SW,225,5.4,6.0,50,0.00,,,0.00,meteobridge,2013-04-03 18:15:00,
2013-04-03 14:30:00,85.1,64.4,30.01,South,180,6.0,6.0,50,0.00,,,0.00,meteobridge,2013-04-03 18:30:00,
2013-04-03 14:45:00,86.2,65.3,30.00,South,180,4.5,4.5,50,0.00,,,0.00,meteobridge,2013-04-03 18:45:00,
2013-04-03 15:01:00,85.8,66.7,30.01,SW,225,3.8,9.2,53,0.00,,,0.00,meteobridge,2013-04-03 19:01:00,
2013-04-03 15:16:00,84.7,66.2,30.00,SW,225,5.4,5.4,54,0.00,,,0.00,meteobridge,2013-04-03 19:16:00,
2013-04-03 15:31:00,84.7,68.4,29.98,SSW,203,3.8,3.8,58,0.00,,,0.00,meteobridge,2013-04-03 19:31:00,
2013-04-03 15:46:00,84.0,67.6,29.98,SW,225,3.1,4.5,58,0.00,,,0.00,meteobridge,2013-04-03 19:46:00,
2013-04-03 16:01:00,83.1,67.3,29.98,South,180,5.4,5.4,59,0.00,,,0.00,meteobridge,2013-04-03 20:01:00,
2013-04-03 16:16:00,83.7,67.8,29.99,SW,225,5.4,5.4,59,0.00,,,0.00,meteobridge,2013-04-03 20:16:00,
2013-04-03 16:31:00,81.7,66.4,29.99,South,180,3.8,5.4,60,0.00,,,0.00,meteobridge,2013-04-03 20:31:00,
2013-04-03 16:46:00,80.2,66.9,29.98,South,180,2.2,4.5,64,0.00,,,0.00,meteobridge,2013-04-03 20:46:00,
2013-04-03 17:01:00,79.9,66.6,29.98,SW,225,3.8,3.8,64,0.00,,,0.00,meteobridge,2013-04-03 21:01:00,
2013-04-03 17:16:00,79.3,67.5,29.97,South,180,3.8,3.8,67,0.00,,,0.00,meteobridge,2013-04-03 21:16:00,
2013-04-03 17:31:00,79.0,67.5,29.98,South,180,3.8,3.8,68,0.00,,,0.00,meteobridge,2013-04-03 21:31:00,
2013-04-03 17:46:00,78.4,67.8,29.98,South,180,3.8,3.8,70,0.00,,,0.00,meteobridge,2013-04-03 21:46:00,
2013-04-03 18:01:00,77.5,68.2,29.97,South,180,3.1,3.8,73,0.00,,,0.00,meteobridge,2013-04-03 22:01:00,
2013-04-03 18:16:00,77.0,68.0,29.96,SW,225,3.1,3.1,74,0.00,,,0.00,meteobridge,2013-04-03 22:16:00,
2013-04-03 18:31:00,76.5,68.4,29.96,South,180,2.2,4.5,76,0.00,,,0.00,meteobridge,2013-04-03 22:31:00,
2013-04-03 18:46:00,75.7,68.0,29.97,South,180,2.2,3.8,77,0.00,,,0.00,meteobridge,2013-04-03 22:46:00,
2013-04-03 19:01:00,75.6,68.5,29.98,South,180,3.1,3.1,79,0.00,,,0.00,meteobridge,2013-04-03 23:01:00,
2013-04-03 19:16:00,75.0,68.4,29.98,SSE,158,2.2,2.2,80,0.00,,,0.00,meteobridge,2013-04-03 23:16:00,
2013-04-03 19:31:00,74.5,68.5,29.98,South,180,3.8,3.8,82,0.00,,,0.00,meteobridge,2013-04-03 23:31:00,
2013-04-03 19:46:00,73.9,68.4,29.99,South,180,2.2,3.1,83,0.00,,,0.00,meteobridge,2013-04-03 23:46:00,
2013-04-03 20:01:00,73.4,68.2,29.99,South,180,2.2,3.1,84,0.00,,,0.00,meteobridge,2013-04-04 00:01:00,
2013-04-03 20:16:00,73.4,68.2,29.98,South,180,2.2,2.2,84,0.00,,,0.00,meteobridge,2013-04-04 00:16:00,
2013-04-03 20:31:00,73.4,68.5,30.00,South,180,3.8,3.8,85,0.00,,,0.00,meteobridge,2013-04-04 00:31:00,
2013-04-03 20:46:00,73.4,68.9,30.01,South,180,1.6,2.2,86,0.00,,,0.00,meteobridge,2013-04-04 00:46:00,
2013-04-03 21:01:00,72.7,69.3,30.01,SW,225,2.2,2.2,89,0.00,,,0.00,meteobridge,2013-04-04 01:01:00,
2013-04-03 21:16:00,72.3,68.9,30.01,West,270,2.2,2.2,89,0.00,,,0.00,meteobridge,2013-04-04 01:16:00,
2013-04-03 21:31:00,72.3,68.9,30.01,South,180,3.8,3.8,89,0.00,,,0.00,meteobridge,2013-04-04 01:31:00,
2013-04-03 21:46:00,72.3,68.5,30.02,SW,225,2.2,2.2,88,0.00,,,0.00,meteobridge,2013-04-04 01:46:00,
2013-04-03 22:01:00,72.5,68.7,30.03,SW,225,1.6,1.6,88,0.00,,,0.00,meteobridge,2013-04-04 02:01:00,
2013-04-03 22:16:00,72.7,68.9,30.04,South,180,2.2,2.2,88,0.00,,,0.00,meteobridge,2013-04-04 02:16:00,
2013-04-03 22:31:00,72.1,68.7,30.05,South,180,2.2,2.2,89,0.00,,,0.00,meteobridge,2013-04-04 02:31:00,
2013-04-03 22:46:00,70.7,68.0,30.05,South,180,2.2,2.2,91,0.00,,,0.00,meteobridge,2013-04-04 02:46:00,
2013-04-03 23:01:00,70.3,66.6,30.03,SSW,203,1.6,2.2,88,0.00,,,0.00,meteobridge,2013-04-04 03:01:00,
2013-04-03 23:16:00,70.3,66.9,30.03,South,180,3.1,3.1,89,0.00,,,0.00,meteobridge,2013-04-04 03:16:00,
2013-04-03 23:31:00,70.7,67.6,30.02,South,180,2.2,2.2,90,0.00,,,0.00,meteobridge,2013-04-04 03:31:00,
2013-04-03 23:46:00,71.2,68.5,30.02,South,180,2.2,2.2,91,0.00,,,0.00,meteobridge,2013-04-04 03:46:00,